Home   Weather   Asker   Past weeks

Flag for Norway Past Weather in Asker, Norway — Yesterday and Last 2 Weeks

Now
57 °F

Low clouds.


Feels Like: 53 °F
Forecast: 52 / 69 °F
Wind: 21 mph from North

Location: Statfjord B

Current Time: Jul 24, 2017 at 3:01:25 pm

Latest Report: Jul 24, 2017 at 2:20 pm


Visibility: N/A

Pressure: 29.98 "Hg

Humidity: 88%

Dew Point: 54 °F

Location of AskerLocation

Past Weather in Asker — Graph

°F

Asker Temperature Yesterday

Maximum temperature yesterday: 57 °F (at 12:20 am)
Minimum temperature yesterday: 54 °F (at 6:20 am)
Average temperature yesterday: 55 °F

High & Low Weather Summary for the Past Weeks

 TemperatureHumidityPressure
High68 °F (Jul 20, 12:50 pm)100% (Jul 15, 4:50 pm)30.15 "Hg (Jul 15, 4:50 pm)
Low50 °F (Jul 10, 4:50 am)43% (Jul 20, 12:50 pm)29.59 "Hg (Jul 15, 8:20 pm)
Average56 °F82%29.90 "Hg
* Reported Jul 9 1:20 pm — Jul 24 1:20 pm, Asker. Weather by CustomWeather, © 2017

Note: Actual official high and low records may vary slightly from our data, if they occured in-between our weather recording intervals... More about our weather records

Advertising

Asker Weather History for the Previous 24 Hours

Scroll right to see more
 ConditionsComfort  
Time TempWeatherWind HumidityBarometerVisibility
1:20 pm
Mon, Jul 24
55 °FPartly sunny.21 mph94%29.98 "HgN/A
12:20 pm55 °FPartly sunny.18 mph94%29.98 "HgN/A
11:50 am55 °FPartly sunny.23 mph94%29.98 "HgN/A
11:20 am55 °FPartly sunny.22 mph100%29.98 "HgN/A
10:50 am55 °FPartly sunny.22 mph94%29.98 "HgN/A
10:20 am54 °FPartly sunny.23 mph100%29.98 "HgN/A
9:50 am54 °FPartly sunny.23 mph100%29.98 "Hg5 mi
9:20 am54 °FLow clouds.23 mph100%29.95 "Hg5 mi
8:50 am54 °FPartly sunny.21 mph100%29.98 "Hg6 mi
8:20 am54 °FLow clouds.20 mph100%29.98 "HgN/A
7:50 am54 °FLow clouds.20 mph100%29.95 "HgN/A
7:20 am54 °FLow clouds.20 mph100%29.98 "HgN/A
6:50 am54 °FLow clouds.20 mph100%29.98 "HgN/A
6:20 am54 °FPartly sunny.18 mph100%29.98 "Hg4 mi
5:50 am54 °FPartly sunny.18 mph100%29.95 "Hg2 mi
5:20 am54 °FFog.21 mph100%29.98 "Hg1 mi
4:20 am54 °FFog.22 mph100%29.98 "Hg0 mi
3:50 am54 °FFog.22 mph100%29.98 "Hg0 mi
3:20 am54 °FLow clouds.23 mph100%29.98 "Hg6 mi
2:50 am54 °FLow clouds.25 mph94%29.98 "HgN/A
2:20 am54 °FLow clouds.24 mph94%29.98 "HgN/A
1:50 am54 °FLow clouds.24 mph94%29.98 "HgN/A
1:20 am54 °FLow clouds.24 mph94%29.98 "HgN/A
12:50 am54 °FLow clouds.25 mph94%29.98 "HgN/A
12:20 am54 °FLow clouds.25 mph100%29.98 "HgN/A
11:50 pm
Sun, Jul 23
54 °FLow clouds.24 mph94%29.98 "HgN/A
11:20 pm54 °FLow clouds.23 mph100%30.01 "HgN/A
10:20 pm54 °FLow clouds.24 mph94%30.01 "HgN/A
9:50 pm54 °FLow clouds.25 mph94%30.01 "HgN/A
9:20 pm54 °FPartly sunny.25 mph94%30.01 "HgN/A
8:20 pm54 °FOvercast.24 mph94%30.01 "HgN/A
7:50 pm54 °FPartly sunny.23 mph94%30.01 "HgN/A
7:20 pm54 °FOvercast.23 mph94%30.01 "HgN/A
6:50 pm54 °FOvercast.25 mph94%30.01 "HgN/A
6:20 pm54 °FOvercast.24 mph94%30.01 "HgN/A
5:20 pm54 °FPartly sunny.26 mph94%30.01 "HgN/A
4:50 pm55 °FPartly sunny.25 mph88%30.04 "HgN/A
4:20 pm54 °FPartly sunny.24 mph94%30.04 "HgN/A
3:50 pm55 °FPartly sunny.21 mph88%30.04 "HgN/A
3:20 pm54 °FLow clouds.25 mph94%30.04 "HgN/A
Weather by CustomWeather, © 2017

See weather overviewHow to use our weather pages